Weather History for Concord, NH

Change the Weather History Date:

Friday, April 12, 2013

  Actual Average Record
Temperature  
Mean Temperature 36 °F 44 °F  
Max Temperature 40 °F 56 °F 85 °F (1945)
Min Temperature 31 °F 32 °F 13 °F (1976)
Degree Days  
Heating Degree Days 29 21  
Month to date heating degree days 279 283  
Since 1 July heating degree days 6196 6530  
Cooling Degree Days 0 0  
Month to date cooling degree days 0 0  
Year to date cooling degree days 0 0  
Moisture  
Dew Point 30 °F    
Average Humidity 80    
Maximum Humidity 100    
Minimum Humidity 59    
Precipitation  
Precipitation 0.49 in 0.11 in 1.61 in (1932)
Month to date precipitation 1.43 1.38  
Year to date precipitation 8.24 9.97  
Snow  
Snow 0.00 in 0.10 in 8.60 in (1918)
Month to date snowfall T 1.8  
Since 1 July snowfall 83.2 60.4  
Snow Depth 0.00 in    
Sea Level Pressure  
Sea Level Pressure 30.02 in    
Wind  
Wind Speed 6 mph (ENE)    
Max Wind Speed 13 mph    
Max Gust Speed 20 mph    
Visibility 4 miles    
Events Rain , Snow    
T = Trace of Precipitation, MM = Missing Value Source: NWS Daily Summary

Daily Weather History Graph

Daily Weather History Graph

Search for Another Location

Airport:

Trip Planner

Search our weather history database for the weather conditions in past years. The results will help you decide how hot, cold, wet, or windy it might be!

Date:

Astronomy

Apr. 12, 2013 Rise Set
Actual Time 6:08 AM EDT 7:25 PM EDT
Civil Twilight 5:39 AM EDT 7:55 PM EDT
Nautical Twilight 5:03 AM EDT 8:30 PM EDT
Astronomical Twilight 4:26 AM EDT 9:08 PM EDT
Moon 7:12 AM EDT (4/12) 9:57 PM EDT (4/12)
Length of Visible Light 14h 15m
Length of Day
13h 17m
Waxing Crescent, 5% of the Moon is Illuminated
Apr 12
Waxing Crescent
Apr 18
First Quarter
Apr 25
Full
May 2
Last Quarter
May 9
New

Hourly Weather History & Observations

Time (EDT) Temp. Windchill Dew Point Humidity Pressure Visibility Wind Dir Wind Speed Gust Speed Precip Events Conditions
12:51 AM 37.9 °F - 28.9 °F 70% 30.17 in 10.0 mi Calm Calm - N/A   Overcast
1:51 AM 39.0 °F - 26.1 °F 60% 30.17 in 10.0 mi Calm Calm - N/A   Overcast
2:51 AM 39.0 °F 34.0 °F 19.0 °F 45% 30.17 in 10.0 mi ENE 6.9 mph - 0.00 in Rain Light Rain
3:51 AM 35.1 °F 30.1 °F 27.0 °F 72% 30.19 in 10.0 mi East 5.8 mph - 0.03 in   Overcast
4:51 AM 33.1 °F 27.7 °F 26.1 °F 75% 30.20 in 10.0 mi ENE 5.8 mph - 0.01 in   Overcast
5:51 AM 33.1 °F 28.7 °F 27.0 °F 78% 30.20 in 10.0 mi East 4.6 mph - N/A   Overcast
6:51 AM 32.0 °F 24.8 °F 25.0 °F 75% 30.22 in 10.0 mi ENE 8.1 mph - 0.00 in   Overcast
7:51 AM 32.0 °F 25.6 °F 25.0 °F 75% 30.20 in 10.0 mi ENE 6.9 mph - 0.02 in   Overcast
8:51 AM 32.0 °F 23.6 °F 24.1 °F 73% 30.19 in 10.0 mi ENE 10.4 mph - N/A   Overcast
9:51 AM 32.0 °F 25.6 °F 25.0 °F 75% 30.17 in 10.0 mi East 6.9 mph - N/A   Overcast
10:51 AM 33.1 °F 25.5 °F 26.1 °F 75% 30.12 in 10.0 mi East 9.2 mph 16.1 mph N/A   Overcast
11:09 AM 32.0 °F 24.2 °F 26.6 °F 80% 30.10 in 2.5 mi ENE 9.2 mph - 0.01 in Rain Light Freezing Rain
11:16 AM 32.0 °F 24.2 °F 28.4 °F 87% 30.10 in 2.0 mi ENE 9.2 mph - 0.02 in Rain Light Freezing Rain
11:25 AM 32.0 °F 24.8 °F 28.4 °F 87% 30.10 in 2.5 mi ENE 8.1 mph - 0.03 in Rain Light Freezing Rain
11:31 AM 32.0 °F 25.6 °F 28.4 °F 87% 30.09 in 1.8 mi East 6.9 mph - 0.04 in Rain Light Freezing Rain
11:44 AM 32.0 °F 26.4 °F 28.4 °F 87% 30.09 in 1.8 mi ENE 5.8 mph - 0.07 in Rain Light Freezing Rain
11:51 AM 32.0 °F 25.6 °F 28.9 °F 88% 30.10 in 1.5 mi ENE 6.9 mph - 0.09 in Rain Light Freezing Rain
11:57 AM 32.0 °F 26.4 °F 28.4 °F 87% 30.08 in 2.0 mi ENE 5.8 mph - 0.01 in Rain Light Freezing Rain
12:09 PM 32.0 °F 26.4 °F 28.4 °F 87% 30.08 in 2.5 mi East 5.8 mph - 0.02 in   Overcast
12:25 PM 30.2 °F 23.4 °F 28.4 °F 93% 30.07 in 1.2 mi East 6.9 mph - 0.06 in   Overcast
12:51 PM 30.9 °F 25.2 °F 30.0 °F 96% 30.07 in 1.2 mi East 5.8 mph - 0.16 in   Overcast
12:59 PM 32.0 °F 25.6 °F 30.2 °F 93% 30.04 in 2.0 mi ENE 6.9 mph - 0.03 in   Overcast
1:31 PM 33.8 °F 28.6 °F 30.2 °F 87% 30.05 in 1.8 mi East 5.8 mph - 0.11 in   Overcast
1:36 PM 33.8 °F 27.7 °F 30.2 °F 87% 30.04 in 1.2 mi East 6.9 mph - 0.11 in Snow Light Snow
1:51 PM 33.1 °F 26.9 °F 30.9 °F 92% 30.04 in 1.5 mi East 6.9 mph - 0.13 in   Overcast
2:01 PM 33.8 °F 26.4 °F 30.2 °F 87% 30.02 in 2.5 mi East 9.2 mph - 0.01 in Rain Light Rain
2:14 PM 33.8 °F 27.0 °F 30.2 °F 87% 30.03 in 2.0 mi East 8.1 mph - 0.01 in Snow Light Snow
2:21 PM 33.8 °F 25.8 °F 30.2 °F 87% 30.03 in 1.8 mi ESE 10.4 mph - 0.01 in Snow Light Snow
2:25 PM 33.8 °F 27.7 °F 30.2 °F 87% 30.03 in 2.0 mi ESE 6.9 mph - 0.01 in Snow Light Snow
2:35 PM 33.8 °F 29.6 °F 30.2 °F 87% 30.03 in 2.0 mi ESE 4.6 mph - 0.02 in Snow Light Snow
2:47 PM 33.8 °F 28.6 °F 32.0 °F 93% 30.02 in 2.0 mi East 5.8 mph - 0.04 in Snow Light Snow
2:51 PM 33.1 °F 28.7 °F 32.0 °F 96% 30.03 in 1.8 mi ENE 4.6 mph - 0.04 in Snow Light Snow
2:59 PM 33.8 °F 28.6 °F 32.0 °F 93% 30.02 in 3.0 mi Variable 5.8 mph - 0.00 in Snow Light Snow
3:13 PM 33.8 °F 28.6 °F 32.0 °F 93% 30.01 in 4.0 mi East 5.8 mph - 0.00 in Snow Light Snow
3:51 PM 34.0 °F 28.0 °F 30.9 °F 89% 30.00 in 9.0 mi ENE 6.9 mph - 0.00 in   Overcast
3:58 PM 33.8 °F 27.0 °F 32.0 °F 93% 29.98 in 8.0 mi ENE 8.1 mph - N/A   Overcast
4:24 PM 33.8 °F 27.7 °F 32.0 °F 93% 29.96 in 2.5 mi East 6.9 mph - 0.00 in Snow Light Snow
4:31 PM 33.8 °F 30.8 °F 32.0 °F 93% 29.96 in 3.0 mi ENE 3.5 mph - 0.00 in   Overcast
4:37 PM 33.8 °F 27.7 °F 32.0 °F 93% 29.96 in 2.0 mi East 6.9 mph - 0.00 in   Overcast
4:51 PM 33.1 °F 26.9 °F 32.0 °F 96% 29.97 in 2.5 mi ENE 6.9 mph - 0.00 in   Overcast
4:54 PM 33.8 °F 27.0 °F 32.0 °F 93% 29.96 in 2.5 mi ENE 8.1 mph - N/A   Overcast
5:01 PM 33.8 °F 27.7 °F 32.0 °F 93% 29.95 in 2.0 mi ENE 6.9 mph - N/A   Overcast
5:08 PM 33.8 °F 28.6 °F 32.0 °F 93% 29.95 in 2.5 mi ENE 5.8 mph - N/A   Overcast
5:18 PM 33.8 °F 27.7 °F 32.0 °F 93% 29.95 in 2.5 mi ENE 6.9 mph - N/A   Overcast
5:46 PM 33.8 °F 27.0 °F 32.0 °F 93% 29.95 in 2.5 mi East 8.1 mph - 0.00 in Snow Light Snow
5:51 PM 33.1 °F 26.1 °F 32.0 °F 96% 29.96 in 2.5 mi ENE 8.1 mph - 0.01 in Snow Light Snow
6:14 PM 33.8 °F 26.4 °F 30.2 °F 87% 29.94 in 3.0 mi ENE 9.2 mph - 0.00 in   Overcast
6:51 PM 33.1 °F 27.7 °F 32.0 °F 96% 29.93 in 3.0 mi ENE 5.8 mph - 0.00 in   Overcast
7:05 PM 33.8 °F 27.0 °F 32.0 °F 93% 29.92 in 3.0 mi ENE 8.1 mph - N/A   Overcast
7:12 PM 33.8 °F 28.6 °F 32.0 °F 93% 29.92 in 2.5 mi ENE 5.8 mph - N/A   Overcast
7:23 PM 33.8 °F 27.0 °F 32.0 °F 93% 29.91 in 3.0 mi ENE 8.1 mph - N/A   Overcast
7:51 PM 33.1 °F 28.7 °F 32.0 °F 96% 29.92 in 4.0 mi NE 4.6 mph - N/A   Overcast
8:08 PM 33.8 °F 29.6 °F 32.0 °F 93% 29.91 in 3.0 mi NE 4.6 mph - N/A   Overcast
8:19 PM 33.8 °F 29.6 °F 32.0 °F 93% 29.91 in 3.0 mi NNE 4.6 mph - N/A   Overcast
8:51 PM 33.1 °F 27.7 °F 32.0 °F 96% 29.92 in 3.0 mi NNE 5.8 mph - N/A   Overcast
8:59 PM 33.8 °F 30.8 °F 32.0 °F 93% 29.90 in 2.5 mi NNE 3.5 mph - N/A   Overcast
9:07 PM 33.8 °F 28.6 °F 32.0 °F 93% 29.90 in 3.0 mi NE 5.8 mph - N/A   Overcast
9:51 PM 33.1 °F 26.9 °F 32.0 °F 96% 29.90 in 4.0 mi NNE 6.9 mph - N/A   Overcast
9:59 PM 33.8 °F 27.0 °F 32.0 °F 93% 29.88 in 5.0 mi NNE 8.1 mph - N/A   Overcast
10:51 PM 33.1 °F 30.0 °F 32.0 °F 96% 29.89 in 9.0 mi Variable 3.5 mph - N/A   Overcast
11:12 PM 33.8 °F 27.7 °F 32.0 °F 93% 29.86 in 6.0 mi North 6.9 mph - N/A   Overcast
11:39 PM 33.8 °F 28.6 °F 32.0 °F 93% 29.86 in 4.0 mi NNE 5.8 mph - N/A   Overcast
11:51 PM 33.1 °F 26.1 °F 32.0 °F 96% 29.87 in 4.0 mi NNE 8.1 mph - N/A   Overcast